Coffeyville, KS

11:21 PM CST on December 11, 2017 (GMT -0600)
Coffeyville Municipal

Weather History for KCFV - March, 2013

Change the Weather History Date:

Thursday, March 21, 2013

  Actual Average Record
Temperature  
Mean Temperature 39 °F -  
Max Temperature 43 °F 58 °F 88 °F (1997)
Min Temperature 36 °F 36 °F 21 °F (2002)
Degree Days  
Heating Degree Days 26    
Moisture  
Dew Point 23 °F    
Average Humidity 59    
Maximum Humidity 86    
Minimum Humidity 32    
Precipitation  
Precipitation 0.01 in - - ()
Sea Level Pressure  
Sea Level Pressure 29.92 in    
Wind  
Wind Speed 11 mph (East)    
Max Wind Speed 16 mph    
Max Gust Speed 26 mph    
Visibility 10 miles    
Events Rain    
Averages and records for this station are not official NWS values.
T = Trace of Precipitation, MM = Missing Value Source: NWS Daily Summary

Daily Weather History Graph

Daily Weather History Graph

Search for Another Location

Airport or City:

Trip Planner

Search our weather history database for the weather conditions in past years. The results will help you decide how hot, cold, wet, or windy it might be!

Date:

Astronomy

Mar. 21, 2013 Rise Set
Actual Time 7:23 AM CDT 7:35 PM CDT
Civil Twilight 6:58 AM CDT 8:01 PM CDT
Nautical Twilight 6:27 AM CDT 8:31 PM CDT
Astronomical Twilight 5:56 AM CDT 9:02 PM CDT
Moon 2:12 PM CDT (3/21) 3:39 AM CDT (3/21)
Length of Visible Light 13h 03m
Length of Day
12h 11m
Waxing Gibbous, 69% of the Moon is Illuminated
Mar 21
Waxing Gibbous
Mar 27
Full
Apr 2
Last Quarter
Apr 10
New
Apr 18
First Quarter

Hourly Weather History & Observations

Time (CDT) Temp. Windchill Dew Point Humidity Pressure Visibility Wind Dir Wind Speed Gust Speed Precip Events Conditions
12:52 AM 36.0 °F 29.6 °F 19.9 °F 52% 30.09 in 10.0 mi East 8.1 mph - N/A   Clear
1:52 AM 36.0 °F 29.0 °F 18.0 °F 48% 30.07 in 10.0 mi East 9.2 mph - N/A   Clear
2:52 AM 36.0 °F 29.6 °F 19.0 °F 50% 30.05 in 10.0 mi East 8.1 mph - N/A   Clear
3:52 AM 36.0 °F 29.6 °F 18.0 °F 48% 30.05 in 10.0 mi East 8.1 mph - N/A   Overcast
4:52 AM 36.0 °F 29.0 °F 18.0 °F 48% 30.02 in 10.0 mi East 9.2 mph - N/A   Mostly Cloudy
5:52 AM 36.0 °F 28.0 °F 18.0 °F 48% 30.01 in 10.0 mi East 11.5 mph - N/A   Mostly Cloudy
7:52 AM 36.0 °F 28.0 °F 15.1 °F 43% 30.00 in 10.0 mi East 11.5 mph - N/A   Overcast
8:52 AM 37.0 °F 30.4 °F 15.1 °F 41% 29.99 in 10.0 mi ESE 9.2 mph - N/A   Overcast
9:52 AM 39.0 °F 31.0 °F 14.0 °F 36% 29.97 in 10.0 mi ESE 13.8 mph 20.7 mph N/A   Overcast
10:52 AM 41.0 °F 32.8 °F 14.0 °F 33% 29.95 in 10.0 mi ESE 16.1 mph 21.9 mph N/A   Overcast
12:52 PM 42.1 °F 35.7 °F 14.0 °F 32% 29.89 in 10.0 mi East 11.5 mph - N/A   Overcast
1:52 PM 39.9 °F 32.1 °F 23.0 °F 51% 29.88 in 7.0 mi ESE 13.8 mph - 0.01 in Rain Light Rain
2:52 PM 39.0 °F 31.4 °F 27.0 °F 62% 29.85 in 10.0 mi East 12.7 mph 21.9 mph 0.00 in   Overcast
3:52 PM 39.0 °F 30.6 °F 28.9 °F 67% 29.83 in 10.0 mi East 15.0 mph - N/A   Overcast
4:48 PM 37.4 °F 28.5 °F 28.4 °F 70% 29.82 in 10.0 mi East 15.0 mph 23.0 mph N/A   Overcast
4:52 PM 37.9 °F 28.9 °F 28.9 °F 70% 29.83 in 10.0 mi East 16.1 mph 23.0 mph N/A   Overcast
5:52 PM 37.9 °F 30.5 °F 30.0 °F 73% 29.83 in 10.0 mi East 11.5 mph 20.7 mph N/A   Overcast
6:52 PM 37.0 °F 29.3 °F 30.9 °F 79% 29.84 in 10.0 mi East 11.5 mph - N/A   Overcast
7:52 PM 37.0 °F 28.9 °F 32.0 °F 82% 29.83 in 10.0 mi East 12.7 mph 26.5 mph N/A   Overcast
8:15 PM 37.4 °F 29.3 °F 32.0 °F 81% 29.83 in 10.0 mi East 12.7 mph - N/A   Overcast
9:52 PM 37.0 °F 29.3 °F 32.0 °F 82% 29.86 in 10.0 mi East 11.5 mph - N/A   Overcast
10:52 PM 36.0 °F 29.0 °F 32.0 °F 86% 29.86 in 10.0 mi East 9.2 mph - N/A   Overcast
11:52 PM 36.0 °F 30.3 °F 32.0 °F 86% 29.87 in 10.0 mi East 6.9 mph - N/A   Overcast